Overview Statistics Trail Chart Weather Telemetry Raw packets
 

This is the latest recevied weather packets stored in our database for station/object K7FLA. If no packets are shown the sender has not sent any weather packets the latest 10 day(s).

<< 67 68 69 70 71 72 73 >>
Time Temp. Humidity Pressure Rain* Wind** Luminosity Snow
1788193598 32.22° C 31% 1095.7 hPa 0 mm - 456 W/m² -
1788193296 31.67° C 33% 1095.5 hPa 0 mm - 438 W/m² -
1788192992 31.67° C 37% 1095.7 hPa 0 mm - 421 W/m² -
1788192689 31.11° C 36% 1095.6 hPa 0 mm - 405 W/m² -
1788192388 30.56° C 37% 1095.7 hPa 0 mm - 389 W/m² -
1788192083 30.56° C 37% 1095.9 hPa 0 mm - 372 W/m² -
1788191782 30° C 38% 1095.6 hPa 0 mm - 351 W/m² -
1788191478 30° C 38% 1095.9 hPa 0 mm - 335 W/m² -
1788191174 30° C 40% 1095.6 hPa 0 mm - 319 W/m² -
1788190874 29.44° C 40% 1095.7 hPa 0 mm - 303 W/m² -
1788190573 29.44° C 43% 1095.6 hPa 0 mm - 287 W/m² -
1788190270 28.89° C 41% 1095.5 hPa 0 mm - 271 W/m² -
1788189965 28.89° C 45% 1095.6 hPa 0 mm - 254 W/m² -
1788189661 28.89° C 44% 1095.5 hPa 0 mm - 239 W/m² -
1788189360 28.33° C 47% 1095.5 hPa 0 mm - 223 W/m² -
1788189055 27.78° C 49% 1095.5 hPa 0 mm - 207 W/m² -
1788188744 27.78° C 50% 1095.6 hPa 0 mm - 190 W/m² -
1788188440 26.67° C 54% 1095.5 hPa 0 mm - 175 W/m² -
1788188135 26.11° C 55% 1095.4 hPa 0 mm - 161 W/m² -
1788187831 25.56° C 53% 1095.2 hPa 0 mm - 146 W/m² -
1788187527 25° C 55% 1095.5 hPa 0 mm - 133 W/m² -
1788187222 24.44° C 56% 1095.3 hPa 0 mm - 117 W/m² -
1788186916 24.44° C 59% 1095.3 hPa 0 mm - 105 W/m² -
1788186612 23.89° C 62% 1095.4 hPa 0 mm - 94 W/m² -
1788186309 23.33° C 63% 1095.3 hPa 0 mm - 82 W/m² -

* Rain latest hour (hover to see other rain measurements)
** Current wind speed in m/s (hover to see current wind gust speed)